Skip Page Navigation
NASA JPL Caltech
NASA Logo - Jet Propulsion Laboratory + View the NASA Portal
+ Center for Near-Earth Object Studies
JPL Home Earth Solar System Stars & Galaxies Technology
JPL Solar System Dynamics
BODIES ORBITS EPHEMERIDES TOOLS PHYSICAL DATA DISCOVERY FAQ SITE MAP
JPL Small-Body Database Browser
Search: [ help ]  
379694 (2011 FQ72)
Classification: Main-belt Asteroid          SPK-ID: 2379694
Ephemeris | Orbit Diagram | Orbital Elements | Mission Design | Physical Parameters | Discovery Circumstances ]

[ show orbit diagram ]
Orbital Elements at Epoch 2459000.5 (2020-May-31.0) TDB
Reference: JPL 14 (heliocentric ecliptic J2000)
 Element Value Uncertainty (1-sigma)   Units 
e .145322431748193 7.3044e-08  
a 2.387020624885928 2.1081e-08 au
q 2.040132983044414 1.7954e-07 au
i 1.900275942066018 9.5725e-06 deg
node 31.5990303748309 0.0002268 deg
peri 57.59119138849441 0.00023068 deg
M 243.5388779780688 3.8402e-05 deg
tp 2459436.273837783719
(2021-Aug-09.77383778)
0.00014548 TDB
period 1347.046798781454
3.69
1.7844e-05
4.885e-08
d
yr
n .267251293960728 3.5403e-09 deg/d
Q 2.733908266727441 2.4144e-08 au
  Orbit Determination Parameters
   # obs. used (total)      122  
   data-arc span      8958 days (24.53 yr)  
   first obs. used      1996-01-19  
   last obs. used      2020-07-29  
   planetary ephem.      DE431  
   SB-pert. ephem.      SB431-N16  
   condition code      0  
   norm. resid. RMS      .58123  
   source      ORB  
   producer      Otto Matic  
   solution date      2020-Aug-25 22:56:25  

Additional Information
 Earth MOID = 1.05735 au 
 Jupiter MOID = 2.44945 au 
 T_jup = 3.519 
[ show covariance matrix ]

Ephemeris | Orbit Diagram | Orbital Elements | Mission Design | Physical Parameters | Discovery Circumstances ]

Physical Parameter Table
Parameter Symbol Value Units Sigma Reference Notes
absolute magnitude H 18.1   n/a MPO434349  

379694 (2011 FQ72)          Discovered 2006-Dec-24 by Spacewatch at Kitt Peak
Reference: Last Updated: 2013-11-20
Ephemeris | Orbit Diagram | Orbital Elements | Mission Design | Physical Parameters | Discovery Circumstances ]
ABOUT SSD CREDITS/AWARDS PRIVACY/COPYRIGHT GLOSSARY LINKS
FirstGov 2020-Oct-25 01:02 UT
(server date/time)  
NASA Home Page
Site Manager:   Ryan S. Park
Webmaster  Alan B. Chamberlin